Weather History for KUNI - March, 2012

Change the Weather History Date:

Tuesday, March 6, 2012

  Actual Average (KPKB) Record (KPKB)
Temperature  
Mean Temperature 39 °F 40 °F  
Max Temperature 59 °F 50 °F 76 °F (1973)
Min Temperature 19 °F 30 °F -3 °F (2015)
Degree Days  
Heating Degree Days 26 25  
Month to date heating degree days 155  
Cooling Degree Days 0 0  
Month to date cooling degree days 0  
Year to date cooling degree days 0  
Moisture  
Dew Point 20 °F    
Average Humidity 59    
Maximum Humidity 93    
Minimum Humidity 22    
Precipitation  
Precipitation 0.00 in 0.12 in 2.35 in (1967)
Month to date precipitation 0.64  
Year to date precipitation 6.29  
Sea Level Pressure  
Sea Level Pressure 30.42 in    
Wind  
Wind Speed 3 mph (SSE)    
Max Wind Speed 12 mph    
Max Gust Speed 17 mph    
Visibility 10 miles    
Events      
T = Trace of Precipitation, MM = Missing Value Source: NWS Daily Summary

Daily Weather History Graph

Daily Weather History Graph

Search for Another Location

Airport or City:

Trip Planner

Search our weather history database for the weather conditions in past years. The results will help you decide how hot, cold, wet, or windy it might be!

Date:

Astronomy

Mar. 06, 2012 Rise Set
Actual Time 6:53 AM EST 6:27 PM EST
Civil Twilight 6:26 AM EST 6:53 PM EST
Nautical Twilight 5:55 AM EST 7:24 PM EST
Astronomical Twilight 5:24 AM EST 7:56 PM EST
Moon 4:52 PM EST (3/6) 5:27 AM EST (3/6)
Length of Visible Light 12h 27m
Length of Day
11h 33m
Waxing Gibbous, 96% of the Moon is Illuminated
Mar 6
Waxing Gibbous
Mar 8
Full
Mar 14
Last Quarter
Mar 22
New
Mar 30
First Quarter

Hourly Weather History & Observations

Time (EST) Temp. Windchill Dew Point Humidity Pressure Visibility Wind Dir Wind Speed Gust Speed Precip Events Conditions
12:15 AM 22.3 °F - 19.4 °F 89% 30.48 in 10.0 mi Calm Calm - N/A   Clear
12:35 AM 21.7 °F - 18.3 °F 87% 30.48 in 10.0 mi Calm Calm - N/A   Clear
12:55 AM 22.1 °F - 18.5 °F 86% 30.48 in 10.0 mi Calm Calm - N/A   Clear
1:15 AM 20.8 °F - 18.1 °F 89% 30.48 in 10.0 mi Calm Calm - N/A   Clear
1:35 AM 21.6 °F - 18.5 °F 88% 30.49 in 10.0 mi Calm Calm - N/A   Clear
1:55 AM 21.6 °F - 18.7 °F 89% 30.48 in 10.0 mi Calm Calm - N/A   Clear
2:15 AM 21.2 °F - 18.5 °F 89% 30.49 in 10.0 mi Calm Calm - N/A   Clear
2:35 AM 21.2 °F - 18.5 °F 89% 30.47 in 10.0 mi Calm Calm - N/A   Clear
2:55 AM 21.2 °F - 19.0 °F 91% 30.47 in 10.0 mi Calm Calm - N/A   Clear
3:15 AM 20.3 °F - 17.8 °F 90% 30.47 in 10.0 mi Calm Calm - N/A   Clear
3:35 AM 20.7 °F - 18.3 °F 91% 30.47 in 10.0 mi Calm Calm - N/A   Clear
3:55 AM 20.3 °F - 18.1 °F 91% 30.47 in 10.0 mi Calm Calm - N/A   Clear
4:15 AM 20.7 °F - 18.3 °F 91% 30.48 in 10.0 mi Calm Calm - N/A   Clear
4:35 AM 20.7 °F - 18.5 °F 91% 30.48 in 10.0 mi Calm Calm - N/A   Clear
4:55 AM 20.7 °F - 18.3 °F 91% 30.48 in 10.0 mi Calm Calm - N/A   Clear
5:15 AM 19.8 °F - 17.4 °F 91% 30.49 in 10.0 mi Calm Calm - N/A   Clear
5:35 AM 20.8 °F - 18.5 °F 91% 30.49 in 10.0 mi Calm Calm - N/A   Clear
5:55 AM 19.9 °F - 18.0 °F 92% 30.49 in 10.0 mi Calm Calm - N/A   Clear
6:15 AM 20.3 °F - 18.5 °F 93% 30.51 in 10.0 mi Calm Calm - N/A   Clear
6:35 AM 20.1 °F - 18.1 °F 92% 30.51 in 10.0 mi Calm Calm - N/A   Clear
6:55 AM 20.1 °F - 18.0 °F 91% 30.51 in 10.0 mi Calm Calm - N/A   Clear
7:35 AM 26.8 °F 22.8 °F 23.4 °F 87% 30.50 in 10.0 mi SSE 3.5 mph - N/A   Mostly Cloudy
7:55 AM 27.9 °F 20.6 °F 23.0 °F 82% 30.50 in 10.0 mi SSE 6.9 mph - N/A   Mostly Cloudy
8:15 AM 28.9 °F 22.8 °F 23.4 °F 80% 30.49 in 10.0 mi SSE 5.8 mph - N/A   Mostly Cloudy
8:35 AM 29.8 °F 22.2 °F 23.2 °F 76% 30.49 in 10.0 mi South 8.1 mph - N/A   Scattered Clouds
8:55 AM 30.4 °F 25.6 °F 23.4 °F 75% 30.50 in 10.0 mi SSE 4.6 mph - N/A   Scattered Clouds
9:15 AM 31.5 °F 26.8 °F 23.4 °F 72% 30.49 in 10.0 mi SSE 4.6 mph - N/A   Clear
9:35 AM 32.0 °F 28.7 °F 23.7 °F 71% 30.49 in 10.0 mi SE 3.5 mph - N/A   Scattered Clouds
9:55 AM 33.6 °F 28.4 °F 24.1 °F 68% 30.49 in 10.0 mi SE 5.8 mph - N/A   Scattered Clouds
10:15 AM 34.5 °F 28.6 °F 23.7 °F 65% 30.49 in 10.0 mi SE 6.9 mph - N/A   Scattered Clouds
10:35 AM 36.5 °F 31.0 °F 24.6 °F 62% 30.48 in 10.0 mi SSE 6.9 mph - N/A   Scattered Clouds
10:55 AM 39.4 °F 33.8 °F 24.1 °F 54% 30.47 in 10.0 mi SSE 8.1 mph - N/A   Scattered Clouds
11:15 AM 41.5 °F 35.0 °F 22.8 °F 47% 30.47 in 10.0 mi SSE 11.5 mph - N/A   Clear
11:35 AM 43.9 °F 39.3 °F 22.5 °F 43% 30.46 in 10.0 mi SSE 8.1 mph - N/A   Clear
11:55 AM 45.7 °F 41.0 °F 21.4 °F 38% 30.44 in 10.0 mi SSE 9.2 mph - N/A   Clear
12:15 PM 47.3 °F - 19.4 °F 33% 30.43 in 10.0 mi South 9.2 mph - N/A   Clear
12:35 PM 48.9 °F - 19.9 °F 32% 30.42 in 10.0 mi South 6.9 mph - N/A   Clear
12:55 PM 49.8 °F - 20.7 °F 32% 30.41 in 10.0 mi South 10.4 mph - N/A   Clear
1:15 PM 51.1 °F - 20.1 °F 30% 30.40 in 10.0 mi SSW 8.1 mph 16.1 mph N/A   Clear
1:35 PM 52.5 °F - 19.9 °F 28% 30.38 in 10.0 mi SSW 11.5 mph - N/A   Clear
1:55 PM 52.9 °F - 19.8 °F 27% 30.37 in 10.0 mi South 11.5 mph 17.3 mph N/A   Clear
2:35 PM 55.4 °F - 21.0 °F 26% 30.35 in 10.0 mi South 8.1 mph 17.3 mph N/A   Clear
2:55 PM 56.3 °F - 21.4 °F 26% 30.34 in 10.0 mi South 8.1 mph - N/A   Clear
3:15 PM 57.6 °F - 20.8 °F 24% 30.34 in 10.0 mi SSE 5.8 mph - N/A   Clear
3:35 PM 58.5 °F - 21.6 °F 24% 30.33 in 10.0 mi South 6.9 mph - N/A   Clear
3:55 PM 59.0 °F - 20.8 °F 23% 30.33 in 10.0 mi SSW 8.1 mph - N/A   Clear
4:15 PM 59.9 °F - 21.2 °F 22% 30.32 in 10.0 mi South 8.1 mph - N/A   Clear
4:35 PM 59.9 °F - 20.7 °F 22% 30.32 in 10.0 mi South 5.8 mph - N/A   Clear
5:15 PM 59.9 °F - 20.3 °F 22% 30.32 in 10.0 mi South 8.1 mph - N/A   Clear
5:35 PM 59.2 °F - 19.9 °F 22% 30.31 in 10.0 mi South 6.9 mph - N/A   Clear
6:15 PM 57.0 °F - 20.5 °F 24% 30.31 in 10.0 mi South 5.8 mph - N/A   Clear
6:35 PM 54.7 °F - 21.0 °F 27% 30.31 in 10.0 mi SSE 5.8 mph - N/A   Clear
6:55 PM 53.8 °F - 20.1 °F 27% 30.31 in 10.0 mi SSE 3.5 mph - N/A   Clear
7:15 PM 51.8 °F - 20.3 °F 29% 30.31 in 10.0 mi SSE 3.5 mph - N/A   Clear
7:55 PM 50.0 °F - 20.3 °F 31% 30.30 in 10.0 mi SSE 4.6 mph - N/A   Clear
8:15 PM 50.4 °F - 20.5 °F 31% 30.30 in 10.0 mi SSE 4.6 mph - N/A   Clear
8:35 PM 48.6 °F - 21.4 °F 34% 30.30 in 10.0 mi South 3.5 mph - N/A   Clear
8:55 PM 50.9 °F - 20.7 °F 30% 30.31 in 10.0 mi South 3.5 mph - N/A   Clear
9:35 PM 43.2 °F - 24.6 °F 48% 30.31 in 10.0 mi Calm Calm - N/A   Clear
10:15 PM 41.2 °F - 25.5 °F 54% 30.32 in 10.0 mi Calm Calm - N/A   Clear
10:35 PM 46.8 °F - 22.3 °F 38% 30.32 in 10.0 mi South 3.5 mph - N/A   Clear
10:55 PM 46.9 °F - 22.5 °F 38% 30.32 in 10.0 mi South 3.5 mph - N/A   Clear
11:15 PM 47.5 °F - 22.8 °F 38% 30.32 in 10.0 mi South 4.6 mph - N/A   Clear
11:55 PM 48.7 °F - 24.4 °F 39% 30.31 in 10.0 mi South 4.6 mph - N/A   Clear